BGBW

Narsarsuaq Airport

Narsarsuaq, Greenland
Issued Wind Visibility Ceiling Temperature Dew Point Humidity Barometer
Aug-23
10:50 UTC
070°
11 KTS
10,000+ meters Broken
10,000' AGL
12° C
54° F
C
39° F
58% 29.85" Hg
1011 hPa
VFR
Aug-23
09:50 UTC
240°
5 KTS
10,000+ meters Broken
9,000' AGL
11° C
52° F
C
37° F
58% 29.85" Hg
1011 hPa
VFR
Aug-23
08:50 UTC
Varies @2 KTS   Broken
9,000' AGL
11° C
52° F
C
39° F
62% 29.85" Hg
1011 hPa
Aug-23
07:50 UTC
180°
3 KTS
  Broken
8,500' AGL
11° C
52° F
C
36° F
54% 29.85" Hg
1011 hPa
Aug-23
06:50 UTC
060°
5 KTS
  Overcast
8,500' AGL
12° C
54° F
C
32° F
44% 29.82" Hg
1010 hPa
Aug-23
05:50 UTC
070°
11 KTS
  Overcast
8,500' AGL
14° C
57° F
-1° C
30° F
36% 29.79" Hg
1009 hPa
Aug-23
04:50 UTC
060°
13 KTS
  Overcast
8,500' AGL
14° C
57° F
-1° C
30° F
36% 29.76" Hg
1008 hPa
Aug-23
03:50 UTC
070°
16 KTS
  Overcast
8,500' AGL
14° C
57° F
-1° C
30° F
36% 29.76" Hg
1008 hPa
Aug-23
02:50 UTC
060°
15 KTS
  Broken
7,000' AGL
14° C
57° F
-1° C
30° F
36% 29.76" Hg
1008 hPa
Aug-23
01:50 UTC
060°
15 KTS
  Broken
7,000' AGL
14° C
57° F
-1° C
30° F
36% 29.76" Hg
1008 hPa
Aug-23
00:50 UTC
060°
17 KTS
  Broken
7,000' AGL
13° C
55° F
C
32° F
41% 29.73" Hg
1007 hPa
Aug-22
23:50 UTC
070°
20 KTS
  Overcast
7,000' AGL
12° C
54° F
C
34° F
47% 29.73" Hg
1007 hPa
Aug-22
22:50 UTC
060°
19 KTS
  Overcast
7,000' AGL
13° C
55° F
C
36° F
47% 29.7" Hg
1006 hPa
Aug-22
21:50 UTC
060°
18 KTS
  Overcast
7,000' AGL
13° C
55° F
C
34° F
44% 29.68" Hg
1005 hPa
Aug-22
20:50 UTC
070°
19 KTS
10,000+ meters Broken
7,500' AGL
14° C
57° F
C
32° F
39% 29.68" Hg
1005 hPa
VFR
Aug-22
19:50 UTC
070°
22 KTS
10,000+ meters Broken
8,400' AGL
14° C
57° F
-1° C
30° F
36% 29.65" Hg
1004 hPa
VFR
Aug-22
18:50 UTC
070°
23 KTS
Gust 35 KTS
10,000+ meters Broken
8,400' AGL
14° C
57° F
C
32° F
39% 29.65" Hg
1004 hPa
VFR
Aug-22
17:50 UTC
080°
23 KTS
Gust 36 KTS
10,000+ meters Broken
8,400' AGL
15° C
59° F
C
32° F
36% 29.62" Hg
1003 hPa
VFR
Aug-22
16:50 UTC
070°
16 KTS
Gust 27 KTS
10,000+ meters Broken
8,000' AGL
15° C
59° F
C
34° F
39% 29.59" Hg
1002 hPa
VFR
Aug-22
15:50 UTC
080°
13 KTS
Gust 24 KTS
10,000+ meters Broken
8,000' AGL
15° C
59° F
C
34° F
39% 29.59" Hg
1002 hPa
VFR
Aug-22
14:50 UTC
070°
21 KTS
Gust 33 KTS
10,000+ meters Broken
8,000' AGL
16° C
61° F
-1° C
30° F
31% 29.59" Hg
1002 hPa
VFR
Aug-22
13:50 UTC
070°
20 KTS
10,000+ meters Broken
8,000' AGL
15° C
59° F
C
32° F
36% 29.59" Hg
1002 hPa
VFR
Aug-22
12:50 UTC
070°
23 KTS
Gust 33 KTS
10,000+ meters Broken
7,800' AGL
14° C
57° F
C
32° F
39% 29.56" Hg
1001 hPa
VFR